Temp
-11 -11 -11 -11 -11 -11 -11 -11 -12 -12 -11 -11 -11 -12 -12 -12 -12 -12 -12 -13 -13 -13 -14 -14 -14 -14 -14 -15 -15 -15 -15 -15 -15 -15 -15 -15 -16 -16 -16 -16 -16 -16
-11 -11 -11 -11 -11 -11 -11 -12 -12 -12 -12 -12 -12 -12 -12 -12 -12 -12 -12 -13 -13 -14 -14 -14 -14 -14 -15 -15 -15 -15 -15 -15 -15 -15 -16 -16 -16 -16 -16 -16 -16 -16
-11 -11 -11 -11 -11 -11 -11 -12 -12 -12 -12 -12 -12 -12 -12 -12 -12 -13 -13 -13 -13 -14 -14 -14 -14 -15 -15 -15 -15 -15 -15 -15 -15 -16 -16 -16 -16 -16 -16 -16 -16 -16
-11 -11 -11 -11 -12 -12 -12 -12 -12 -12 -12 -12 -12 -12 -12 -12 -12 -13 -13 -13 -14 -14 -14 -14 -15 -15 -15 -15 -15 -15 -15 -16 -16 -16 -16 -16 -16 -16 -16 -16 -16 -16
-11 -11 -11 -11 -12 -12 -12 -12 -12 -12 -12 -12 -12 -12 -12 -12 -12 -13 -13 -13 -14 -14 -14 -14 -15 -15 -15 -15 -15 -15 -16 -16 -16 -16 -16 -16 -16 -16 -17 -17 -16 -17
-12 -12 -12 -12 -12 -12 -12 -12 -12 -12 -12 -12 -12 -12 -12 -12 -13 -13 -13 -13 -14 -14 -14 -15 -15 -15 -15 -15 -15 -16 -16 -16 -16 -16 -16 -16 -17 -17 -17 -17 -17 -17
-12 -12 -12 -12 -12 -12 -12 -12 -12 -12 -12 -12 -13 -13 -13 -13 -13 -13 -13 -13 -14 -14 -14 -15 -15 -15 -15 -15 -16 -16 -16 -16 -16 -16 -16 -17 -17 -17 -17 -17 -17 -17
-12 -12 -12 -12 -12 -12 -12 -12 -12 -13 -13 -13 -13 -13 -13 -13 -13 -13 -13 -14 -14 -14 -14 -15 -15 -15 -16 -16 -16 -16 -16 -16 -16 -16 -17 -17 -17 -17 -17 -17 -17 -17
-12 -12 -12 -12 -12 -12 -12 -13 -13 -13 -13 -13 -13 -13 -13 -13 -13 -13 -14 -14 -14 -14 -15 -15 -15 -16 -16 -16 -16 -16 -16 -16 -17 -17 -17 -17 -17 -17 -17 -17 -17 -17
-12 -12 -12 -12 -12 -12 -13 -13 -13 -13 -13 -13 -13 -13 -14 -14 -14 -14 -14 -14 -14 -15 -15 -16 -16 -16 -16 -16 -16 -16 -16 -17 -17 -17 -17 -17 -17 -17 -17 -17 -17 -18
-12 -12 -13 -13 -13 -13 -13 -13 -13 -13 -13 -13 -13 -14 -14 -14 -14 -14 -14 -14 -15 -15 -16 -16 -16 -16 -16 -16 -17 -17 -17 -17 -17 -17 -17 -17 -17 -17 -17 -17 -17 -18
-13 -13 -13 -13 -13 -13 -13 -13 -13 -13 -13 -13 -14 -14 -14 -14 -14 -14 -15 -15 -15 -16 -16 -17 -17 -17 -17 -17 -17 -17 -17 -17 -17 -17 -17 -17 -17 -17 -17 -17 -18 -18
-13 -13 -13 -13 -13 -13 -13 -13 -13 -13 -13 -14 -14 -14 -14 -14 -15 -15 -15 -15 -16 -16 -16 -17 -17 -17 -17 -17 -17 -17 -17 -17 -17 -17 -17 -17 -17 -17 -17 -18 -18 -18
-13 -13 -13 -13 -13 -13 -13 -13 -13 -14 -14 -14 -14 -14 -14 -15 -15 -15 -15 -15 -16 -16 -17 -17 -17 -17 -17 -17 -17 -17 -17 -17 -17 -17 -17 -17 -17 -17 -17 -18 -18 -18
-13 -13 -13 -13 -13 -13 -13 -13 -13 -14 -14 -14 -14 -15 -15 -15 -15 -15 -15 -15 -16 -16 -17 -17 -17 -17 -17 -17 -17 -17 -17 -17 -17 -17 -17 -17 -17 -17 -17 -18 -18 -18
-13 -13 -13 -13 -13 -13 -13 -13 -14 -14 -14 -14 -15 -15 -15 -15 -15 -15 -15 -15 -16 -16 -16 -17 -17 -17 -17 -17 -17 -17 -17 -17 -17 -17 -17 -17 -17 -17 -17 -18 -18 -18
-14 -14 -14 -14 -13 -13 -14 -14 -14 -14 -14 -14 -15 -15 -15 -15 -15 -15 -15 -15 -16 -16 -16 -17 -17 -17 -17 -17 -17 -17 -17 -17 -18 -18 -18 -18 -17 -17 -18 -18 -18 -19
-14 -14 -14 -14 -14 -14 -14 -14 -14 -14 -14 -15 -15 -15 -15 -15 -15 -15 -16 -16 -16 -16 -16 -17 -17 -17 -17 -17 -17 -18 -18 -18 -18 -18 -18 -17 -17 -17 -18 -18 -19 -19
-14 -14 -14 -14 -14 -14 -14 -14 -15 -15 -15 -15 -15 -15 -15 -16 -16 -16 -16 -16 -16 -16 -17 -17 -17 -17 -17 -17 -18 -18 -18 -18 -18 -17 -17 -17 -17 -18 -18 -18 -19 -19
-14 -15 -15 -15 -15 -15 -15 -15 -15 -15 -16 -16 -16 -16 -16 -16 -16 -16 -16 -16 -16 -16 -17 -17 -17 -17 -18 -18 -18 -18 -18 -18 -17 -17 -17 -18 -18 -18 -18 -19 -19 -20
-15 -15 -15 -15 -15 -15 -15 -16 -16 -16 -16 -16 -16 -16 -16 -16 -16 -16 -16 -16 -16 -16 -17 -17 -17 -18 -18 -18 -18 -18 -18 -18 -18 -18 -18 -18 -18 -19 -19 -20 -20 -20
-15 -15 -15 -15 -15 -16 -16 -16 -16 -16 -16 -16 -16 -16 -16 -16 -16 -16 -17 -17 -17 -17 -17 -17 -17 -18 -18 -18 -18 -18 -18 -18 -18 -18 -18 -18 -19 -20 -20 -20 -20 -20
-15 -16 -16 -16 -16 -16 -16 -16 -16 -16 -16 -16 -16 -16 -16 -16 -17 -17 -17 -17 -17 -17 -17 -18 -18 -18 -18 -18 -18 -18 -18 -18 -18 -18 -19 -19 -20 -20 -20 -20 -20 -20
-16 -16 -16 -16 -16 -16 -16 -17 -17 -17 -17 -17 -17 -17 -17 -17 -17 -17 -17 -17 -17 -17 -17 -18 -18 -18 -18 -18 -19 -19 -19 -19 -19 -19 -19 -20 -20 -20 -20 -20 -21 -21
-16 -16 -16 -16 -16 -17 -17 -17 -17 -17 -17 -17 -17 -17 -17 -17 -17 -17 -17 -17 -17 -17 -17 -18 -18 -18 -18 -19 -19 -19 -19 -19 -19 -19 -20 -20 -20 -20 -20 -21 -21 -22
-16 -16 -16 -17 -17 -17 -17 -17 -17 -17 -17 -17 -17 -17 -17 -17 -17 -17 -17 -17 -17 -17 -17 -18 -18 -19 -19 -19 -19 -19 -19 -19 -20 -20 -20 -20 -21 -21 -21 -22 -22 -22
Height
5796 5795 5794 5792 5792 5791 5790 5789 5788 5787 5786 5785 5784 5782 5781 5780 5778 5777 5776 5775 5773 5772 5772 5770 5769 5768 5767 5766 5764 5763 5761 5760 5759 5757 5756 5754 5752 5750 5749 5747 5744 5742
5791 5790 5789 5788 5787 5786 5785 5784 5783 5782 5781 5780 5778 5777 5776 5774 5773 5772 5771 5770 5768 5767 5766 5765 5764 5763 5761 5760 5759 5757 5756 5754 5753 5751 5750 5748 5746 5744 5743 5740 5738 5736
5786 5785 5784 5783 5782 5781 5780 5779 5778 5777 5776 5774 5773 5772 5770 5769 5768 5766 5765 5764 5763 5762 5761 5760 5758 5757 5756 5754 5753 5751 5750 5749 5747 5746 5744 5742 5740 5738 5736 5734 5732 5729
5782 5781 5780 5778 5777 5776 5775 5774 5773 5772 5771 5769 5768 5766 5765 5764 5762 5761 5760 5759 5758 5756 5755 5754 5753 5752 5750 5749 5747 5746 5744 5743 5741 5740 5738 5736 5734 5732 5730 5728 5725 5723
5777 5776 5775 5774 5772 5771 5770 5769 5768 5767 5765 5764 5762 5761 5760 5758 5757 5756 5755 5753 5752 5751 5750 5749 5748 5746 5745 5743 5742 5740 5739 5737 5736 5734 5732 5730 5728 5726 5723 5721 5718 5716
5771 5770 5769 5768 5767 5766 5765 5764 5763 5761 5760 5758 5757 5756 5754 5753 5752 5751 5749 5748 5746 5745 5744 5743 5742 5741 5739 5738 5736 5735 5733 5731 5729 5727 5726 5724 5722 5719 5717 5714 5711 5709
5766 5765 5763 5763 5762 5761 5760 5758 5757 5756 5754 5752 5751 5750 5749 5747 5746 5745 5744 5742 5741 5740 5739 5737 5736 5735 5733 5732 5730 5729 5727 5725 5723 5721 5719 5717 5715 5712 5709 5707 5704 5702
5760 5759 5758 5757 5756 5755 5754 5752 5751 5750 5748 5747 5746 5744 5743 5742 5740 5739 5738 5736 5735 5734 5733 5732 5730 5729 5727 5726 5724 5723 5721 5719 5717 5715 5713 5710 5708 5705 5702 5699 5697 5694
5754 5753 5752 5751 5750 5750 5748 5746 5745 5743 5742 5741 5740 5738 5737 5736 5735 5733 5732 5731 5729 5728 5727 5725 5724 5723 5721 5720 5718 5716 5714 5712 5710 5708 5706 5703 5700 5697 5694 5691 5689 5687
5749 5748 5747 5746 5745 5743 5742 5740 5739 5737 5736 5735 5734 5732 5731 5730 5729 5727 5726 5725 5723 5721 5720 5719 5718 5716 5715 5713 5711 5709 5707 5705 5703 5701 5698 5695 5692 5689 5686 5684 5682 5679
5743 5742 5741 5739 5738 5737 5736 5734 5733 5731 5730 5729 5728 5726 5725 5724 5722 5721 5719 5718 5717 5715 5714 5712 5711 5710 5708 5706 5704 5702 5700 5698 5696 5693 5690 5687 5684 5682 5680 5677 5674 5671
5736 5735 5734 5733 5731 5730 5729 5728 5726 5725 5724 5722 5721 5720 5718 5717 5716 5714 5713 5712 5710 5708 5707 5706 5705 5703 5701 5699 5697 5696 5694 5691 5689 5686 5683 5680 5678 5675 5672 5669 5667 5664
5729 5728 5727 5726 5725 5723 5722 5721 5720 5718 5717 5716 5715 5713 5712 5711 5709 5708 5706 5705 5703 5702 5701 5699 5698 5696 5695 5693 5691 5689 5687 5684 5682 5679 5676 5673 5670 5667 5664 5662 5659 5656
5722 5721 5720 5719 5718 5716 5715 5714 5713 5712 5710 5709 5708 5707 5705 5704 5703 5701 5700 5698 5697 5695 5694 5693 5691 5689 5688 5686 5684 5682 5680 5678 5675 5672 5669 5666 5662 5659 5657 5654 5650 5647
5714 5713 5713 5712 5711 5710 5709 5707 5706 5705 5704 5702 5701 5700 5699 5697 5696 5695 5693 5692 5690 5689 5687 5685 5684 5683 5681 5679 5677 5675 5673 5671 5668 5665 5662 5658 5655 5652 5649 5645 5642 5639
5708 5707 5706 5705 5704 5703 5702 5701 5700 5698 5697 5696 5694 5693 5692 5691 5690 5688 5687 5685 5683 5682 5680 5678 5677 5675 5673 5672 5670 5668 5665 5663 5660 5657 5654 5651 5648 5644 5641 5638 5635 5632
5701 5700 5699 5698 5697 5697 5696 5694 5693 5691 5690 5689 5688 5687 5685 5684 5683 5682 5680 5678 5676 5675 5673 5671 5670 5668 5666 5664 5662 5660 5657 5655 5652 5649 5646 5644 5641 5637 5634 5631 5627 5624
5695 5694 5693 5692 5691 5690 5689 5687 5686 5685 5684 5682 5681 5680 5679 5677 5676 5675 5673 5671 5670 5668 5666 5664 5663 5661 5659 5657 5654 5652 5650 5647 5644 5642 5639 5636 5633 5630 5626 5623 5620 5616
5688 5687 5686 5685 5684 5683 5682 5681 5679 5678 5677 5676 5674 5673 5672 5670 5669 5668 5666 5665 5663 5661 5659 5657 5655 5653 5651 5649 5647 5644 5642 5640 5637 5634 5631 5629 5626 5622 5619 5615 5612 5607
5681 5680 5679 5678 5677 5676 5675 5674 5673 5671 5670 5669 5667 5666 5665 5664 5662 5661 5659 5658 5656 5654 5652 5650 5648 5645 5644 5642 5639 5637 5634 5632 5629 5626 5623 5621 5618 5615 5611 5607 5603 5598
5674 5673 5672 5671 5670 5669 5667 5666 5665 5664 5663 5662 5660 5659 5658 5657 5655 5654 5652 5650 5649 5647 5645 5643 5641 5638 5636 5634 5631 5629 5626 5623 5620 5618 5616 5613 5610 5607 5603 5598 5593 5589
5667 5665 5664 5663 5662 5661 5660 5659 5658 5657 5656 5655 5653 5652 5651 5650 5648 5647 5645 5643 5641 5639 5637 5635 5633 5630 5628 5625 5622 5620 5617 5615 5613 5611 5609 5606 5602 5598 5593 5589 5584 5579
5659 5658 5657 5656 5655 5654 5653 5652 5651 5650 5649 5647 5646 5645 5644 5643 5641 5639 5637 5635 5633 5631 5629 5626 5623 5621 5619 5616 5613 5611 5609 5607 5605 5604 5602 5598 5593 5588 5584 5579 5575 5570
5651 5650 5649 5648 5647 5647 5645 5645 5644 5642 5641 5640 5639 5638 5637 5635 5633 5631 5629 5627 5625 5623 5621 5618 5615 5613 5611 5607 5604 5602 5601 5599 5597 5595 5592 5588 5583 5579 5575 5571 5566 5561
5644 5643 5642 5641 5640 5639 5638 5637 5636 5635 5634 5632 5631 5630 5629 5627 5625 5623 5621 5619 5617 5614 5612 5609 5606 5604 5602 5599 5596 5594 5592 5590 5588 5585 5582 5578 5574 5570 5566 5562 5557 5553
5637 5636 5635 5634 5633 5632 5631 5630 5629 5627 5626 5624 5623 5622 5620 5618 5617 5615 5613 5611 5608 5606 5603 5600 5597 5595 5593 5590 5588 5586 5583 5581 5578 5575 5572 5569 5565 5561 5558 5553 5549 5544
Wind_Speed
34 34 36 36 36 36 37 37 38 38 39 39 40 40 42 43 43 44 43 43 44 44 44 45 46 47 48 48 49 50 51 53 54 54 55 56 57 58 59 61 62 63
35 35 36 36 36 36 36 36 36 37 38 39 40 41 42 43 43 44 43 43 43 43 44 45 46 47 48 49 50 51 52 53 54 55 56 57 58 59 60 62 63 64
36 36 36 36 36 36 36 36 36 37 39 40 42 43 43 43 43 43 43 42 42 43 43 45 46 47 48 49 51 52 53 54 55 56 57 58 59 60 62 63 64 66
37 37 37 37 37 37 38 38 38 39 40 41 42 43 43 43 43 43 43 42 42 43 44 45 46 47 49 50 51 53 54 55 56 57 58 59 61 62 63 64 65 66
38 38 38 38 38 38 39 39 39 40 41 41 42 43 43 43 44 44 43 43 43 44 44 45 46 48 49 50 52 53 55 56 57 58 60 61 62 63 64 65 66 66
39 39 39 39 38 38 38 38 39 40 41 42 42 43 43 43 44 44 44 44 44 44 45 46 47 48 50 51 53 54 56 57 59 60 62 63 63 64 64 65 66 67
39 39 40 39 39 38 38 38 39 40 41 42 43 43 43 43 44 44 44 44 44 44 45 46 47 49 51 52 54 55 57 59 60 62 63 63 64 64 64 65 66 67
39 40 40 40 39 38 39 39 41 42 43 43 43 43 43 43 43 44 44 44 44 44 45 46 48 50 51 53 55 57 58 60 61 62 63 63 63 64 64 66 66 67
39 40 40 40 40 40 41 42 44 44 45 44 43 43 43 43 43 43 44 44 44 45 46 48 49 50 52 54 56 58 59 60 61 62 63 63 64 65 67 67 67 68
40 40 41 41 42 42 44 45 46 46 46 45 44 44 43 43 44 44 44 44 45 46 48 49 50 51 53 55 57 59 60 61 62 63 63 64 66 68 69 68 68 68
42 42 43 43 44 45 45 46 47 47 47 46 45 44 44 44 45 45 45 46 46 48 49 50 51 52 54 56 58 59 61 62 63 64 65 67 69 69 69 69 69 68
44 44 44 44 45 46 46 47 47 47 47 47 46 46 46 46 46 46 47 47 48 49 50 51 52 53 55 57 59 60 61 63 64 65 67 69 70 70 70 69 68 68
44 44 44 45 45 46 47 47 48 48 48 47 47 47 47 47 47 48 48 49 50 51 51 52 53 55 56 58 59 60 61 62 65 67 68 69 70 71 70 69 68 69
45 45 45 46 47 47 48 48 48 48 48 48 48 48 48 49 49 50 51 52 52 52 53 54 55 56 57 58 60 61 62 64 66 67 68 70 71 72 72 72 72 72
47 46 46 47 48 48 48 48 49 49 49 49 49 49 50 50 51 52 53 54 54 54 54 54 55 56 57 59 61 63 64 65 67 68 71 72 74 75 77 78 77 77
48 48 48 48 48 48 49 49 49 49 49 50 50 51 51 52 53 54 55 56 56 56 56 55 55 56 59 61 62 64 65 67 69 71 72 73 75 78 80 80 79 77
48 48 48 48 49 49 49 49 50 50 51 51 51 52 53 54 54 55 55 55 56 55 55 55 55 57 60 62 63 65 67 68 69 71 71 72 74 76 77 78 77 73
47 47 48 49 49 50 50 50 51 51 51 51 52 52 53 53 53 53 53 54 53 53 53 54 56 58 60 62 64 66 67 68 69 69 70 70 71 72 75 77 76 73
46 47 48 49 50 50 50 50 50 51 51 51 51 51 51 51 51 51 52 51 51 52 53 55 57 59 61 63 65 66 67 68 67 67 67 68 70 73 76 77 77 77
46 47 48 49 49 50 50 50 50 50 49 49 48 48 49 50 50 50 49 50 51 52 54 56 58 60 62 64 66 68 68 68 67 68 69 70 72 74 76 77 78 80
45 46 47 47 47 47 47 47 47 47 46 46 47 48 48 47 47 47 48 49 51 53 55 56 59 61 63 64 66 68 69 69 70 71 72 72 72 72 74 76 79 83
44 45 45 45 45 45 45 45 45 45 45 45 46 45 44 44 45 47 48 50 52 54 56 58 60 62 63 64 66 68 69 70 72 72 72 70 69 70 73 77 81 85
44 45 45 45 45 44 44 44 44 44 43 43 43 43 44 45 47 48 50 52 53 55 57 59 62 63 63 64 66 68 70 70 71 70 69 67 68 72 76 80 83 86
46 46 46 45 45 44 44 43 42 42 42 42 43 45 47 48 50 51 52 53 55 57 59 61 63 63 64 65 66 68 70 70 70 70 69 70 73 77 80 81 83 83
48 48 47 46 45 44 44 43 43 43 43 45 47 49 50 51 52 54 54 55 57 58 60 62 63 63 64 65 66 67 69 69 69 70 72 75 77 79 80 80 80 80
50 49 48 47 46 45 45 45 45 46 47 49 50 52 53 54 55 56 57 57 58 60 61 63 64 63 63 65 67 68 69 70 72 74 76 77 77 77 76 76 77 77
Wind_Direction
283 283 283 283 283 283 283 283 284 284 284 284 284 284 283 284 284 283 283 282 281 282 281 280 280 279 279 279 279 280 280 281 283 284 284 285 286 287 288 290 291 292
283 283 283 283 283 283 283 284 284 284 285 285 284 284 284 284 284 283 283 282 282 281 281 280 280 280 280 280 280 281 281 282 283 284 285 286 287 288 289 291 292 294
283 283 283 283 283 283 283 283 284 284 284 284 284 284 285 284 284 284 283 283 282 282 281 281 281 281 281 281 281 282 283 283 284 285 285 287 288 289 290 292 293 294
281 281 281 282 282 281 282 283 284 284 284 284 284 284 285 285 285 284 284 283 282 282 282 282 282 282 282 282 283 283 283 284 285 286 287 288 289 289 291 292 293 295
279 279 279 279 279 280 281 282 283 283 283 283 283 284 284 284 284 284 283 283 282 282 282 283 283 283 283 284 284 284 284 285 286 286 287 288 289 290 292 293 294 296
277 277 277 277 278 278 279 280 281 282 283 283 282 283 283 284 284 284 283 282 282 282 282 283 284 284 284 284 285 285 285 285 286 287 287 288 290 292 293 294 295 296
276 276 277 278 278 278 278 280 283 284 284 284 283 283 283 283 283 283 283 282 282 283 283 283 284 284 284 284 285 285 285 286 286 287 289 290 292 293 294 295 295 296
276 277 278 278 278 278 280 282 284 285 285 285 284 283 283 283 283 283 283 283 283 284 284 284 284 284 284 284 285 285 286 286 287 289 290 292 293 294 294 294 295 296
278 279 279 279 279 279 281 283 284 285 285 285 284 283 282 282 282 282 282 283 284 284 284 284 284 284 284 284 285 285 286 287 289 290 291 292 293 293 293 293 294 296
279 280 280 280 279 279 280 282 284 284 285 284 283 282 281 281 281 282 283 284 284 284 284 283 284 284 285 285 286 286 287 288 289 290 291 292 292 292 292 292 294 296
279 279 279 279 279 279 280 281 282 283 283 283 283 282 280 280 281 282 283 284 284 284 284 284 284 285 285 286 286 286 287 288 289 290 291 291 290 290 291 292 294 296
278 278 278 278 278 278 279 280 281 282 282 281 281 280 280 280 281 282 283 283 283 283 284 285 285 285 285 285 285 286 287 288 289 289 290 289 289 289 291 292 294 295
276 276 276 277 277 278 278 279 280 280 280 279 278 278 278 279 280 282 282 282 283 283 284 284 284 284 285 285 286 287 288 288 288 288 288 288 288 288 289 291 293 294
274 275 275 276 276 276 277 277 278 278 277 277 277 277 278 279 280 281 282 283 284 284 284 283 283 284 284 285 285 285 286 287 287 287 288 288 289 289 290 291 291 292
274 274 274 274 274 275 275 276 276 276 276 275 276 276 278 279 281 282 283 284 284 283 282 282 282 283 284 283 284 285 286 287 287 287 288 289 291 292 291 290 290 291
274 274 274 274 274 274 274 275 275 275 275 275 276 277 279 281 282 283 284 284 283 283 283 282 282 282 283 283 284 285 286 287 287 288 288 290 292 292 292 291 291 292
274 274 274 274 274 274 274 275 275 275 275 276 277 278 280 281 282 283 284 284 284 284 284 284 283 284 284 284 285 285 286 286 287 287 288 291 292 293 293 293 292 293
273 273 273 273 273 274 274 274 275 275 276 277 278 279 280 281 282 283 283 284 284 285 284 283 284 284 284 284 284 285 286 286 287 288 289 291 292 293 292 292 292 292
271 271 271 271 271 272 273 273 274 275 276 277 278 279 280 281 281 282 282 283 284 283 282 282 283 283 283 284 284 285 286 286 287 288 289 290 291 291 292 293 292 290
270 270 270 270 270 271 272 273 274 274 275 276 277 278 279 279 280 281 282 283 283 283 283 283 283 283 284 284 285 285 287 287 288 290 291 291 291 292 293 293 291 288
271 271 271 271 271 271 272 272 273 273 274 275 276 277 278 279 280 281 283 284 285 285 285 284 284 284 284 285 286 286 287 288 289 290 292 292 293 294 293 290 287 286
274 274 273 273 272 272 272 272 272 273 274 275 275 276 277 279 281 283 285 286 287 287 287 286 285 285 285 286 287 288 288 288 289 290 291 292 292 290 288 286 286 286
278 277 276 275 275 274 274 273 272 273 273 273 273 274 276 280 283 286 287 288 288 287 287 286 285 286 287 287 287 287 288 288 288 290 291 290 287 285 285 286 287 286
280 279 278 277 276 275 273 272 271 270 270 271 273 275 279 282 285 288 289 289 289 288 287 286 286 287 287 285 284 284 285 286 287 287 286 285 284 285 286 286 285 285
280 279 278 277 275 273 271 270 269 269 270 273 276 278 282 285 287 289 291 291 290 289 288 288 287 287 286 285 284 284 285 285 285 284 285 285 285 285 285 284 284 284
280 278 277 275 272 270 269 269 269 271 273 276 279 282 284 287 289 291 292 292 292 291 290 289 289 287 285 284 283 283 284 284 283 284 284 284 283 283 283 284 284 285